SCP
0 0 0 0 0 0 0 0 0 0 0 0 0 0 0 0 0 0 0 0 0 0 0 0 0 0 0 0 0 0 0 0 0 0 0 0 0 0
0 0 0 0 0 0 0 0 0 0 0 0 0 0 0 0 0 0 0 0 0 0 0 0 0 0 0 0 0 0 0 0 0 0 0 0 0 0
0 0 0 0 0 0 0 0 0 0 0 0 0 0 0 0 0 0 0 0 0 0 0 0 0 0 0 0 0 0 0 0 0 0 0 0 0 0
0 0 0 0 0 0 0 0 0 0 0 0 0 0 0 0 0 0 0 0 0 0 0 0 0 0 0 0 0 0 0 0 0 0 0 0 0 0
0 0 0 0 0 0 0 0 0 0 0 0 0 0 0 0 0 0 0 0 0 0 0 0 0 0 0 0 0 0 0 0 0 0 0 0 0 0
0 0 0 0 0 0 0 0 0 0 0 0 0 0 0 0 0 0 0 0 0 0 0 0 0 0 0 0 0 0 0 0 0 0 0 0 0 0
0 0 0 0 0 0 0 0 0 0 0 0 0 0 0 0 0 0 0 0 0 0 0 0 0 0 0 0 0 0 0 0 0 0 0 0 0 0
0 0 0 0 0 0 0 0 0 0 0 0 0 0 0 0 0 0 0 0 0 0 0 0 0 0 0 0 0 0 0 0 0 0 0 0 0 0
0 0 0 0 0 0 0 0 0 0 0 0 0 0 0 0 0 0 0 0 0 0 0 0 0 0 0 0 0 0 0 0 0 0 0 0 0 0
0 0 0 0 0 0 0 0 0 0 0 0 0 0 0 0 0 0 0 0 0 0 0 0 0 0 0 0 0 0 0 0 0 0 0 0 0 0
0 0 0 0 0 0 0 0 0 0 0 0 0 0 0 0 0 0 0 0 0 0 0 0 0 0 0 0 0 0 0 0 0 0 0 0 0 0
0 0 0 0 0 0 0 0 0 0 0 0 0 0 0 0 0 0 0 0 0 0 0 0 0 0 0 0 0 0 0 0 0 0 0 0 0 0
0 0 0 0 0 0 0 0 0 0 0 0 0 0 0 0 0 0 0 0 0 0 0 0 0 0 0 0 0 0 0 0 0 0 0 0 0 0
0 0 0 0 0 0 0 0 0 0 0 0 0 0 0 0 0 0 0 0 0 0 0 0 0 0 0 0 0 0 0 0 0 0 0 0 0 0
0 0 0 0 0 0 0 0 0 0 0 0 0 0 0 0 0 0 0 0 0 0 0 0 0 0 0 0 0 0 0 0 0 0 0 0 0 0
0 0 0 0 0 0 0 0 0 0 0 0 0 0 0 0 0 0 0 0 0 0 0 0 0 0 0 0 0 0 0 0 0 0 0 0 0 0
0 0 0 0 0 0 0 0 0 0 0 0 0 0 0 0 0 0 0 0 0 0 0 0 0 0 0 0 0 0 0 0 0 0 0 0 0 0
0 0 0 0 0 0 0 0 0 0 0 0 0 0 0 0 0 0 0 0 0 0 0 0 0 0 0 0 0 0 0 0 0 0 0 0 0 0
0 0 0 0 0 0 0 0 0 0 0 0 0 0 0 0 0 0 0 0 0 0 0 0 0 0 0 0 0 0 0 0 0 0 0 0 0 0
0 0 0 0 0 0 0 0 0 0 0 0 0 0 0 0 0 0 0 0 0 0 0 0 0 0 0 0 0 0 0 0 0 0 0 0 0 0
0 0 0 0 0 0 0 0 0 0 0 0 0 0 0 0 0 0 0 0 0 0 0 0 0 0 0 0 0 0 0 0 0 0 0 0 0 0
0 0 0 0 0 0 0 0 0 0 0 0 0 0 0 0 0 0 0 0 0 0 0 0 0 0 0 0 0 0 0 0 0 0 0 0 0 0
0 0 0 0 0 0 0 0 0 0 0 0 0 0 0 0 0 0 0 0 0 0 0 0 0 0 0 0 0 0 0 0 0 0 0 0 0 0
Wind_Speed
2 2 2 1 1 1 1 2 2 3 4 3 2 2 2 2 6 4 5 10 13 14 14 15 14 14 14 15 15 16 16 17 17 18 18 18 18 19
2 2 2 1 1 1 1 1 2 3 4 3 3 2 3 4 7 5 6 12 12 14 14 14 14 14 15 15 15 16 16 17 17 18 18 18 19 19
2 2 2 2 1 1 1 1 2 2 5 5 2 2 3 5 6 5 5 5 7 12 14 14 14 15 15 15 16 16 16 17 17 17 18 18 19 19
3 2 2 1 2 1 1 2 2 3 4 6 4 3 4 5 5 6 6 6 6 11 14 14 14 14 15 16 16 16 16 16 17 17 18 18 19 19
3 3 3 2 2 1 2 2 2 2 3 4 5 3 3 4 5 6 6 5 6 9 12 13 14 15 15 16 16 15 16 16 17 17 18 18 19 19
2 2 2 2 2 2 2 2 2 3 3 4 5 5 4 4 4 5 6 5 6 6 8 9 12 14 15 16 16 16 16 17 17 17 18 18 18 19
1 1 1 2 2 2 2 2 2 3 3 4 5 5 5 4 5 4 6 6 6 4 5 6 6 6 8 12 14 16 17 17 17 17 18 18 18 19
1 1 1 2 3 4 5 5 4 4 4 4 5 6 7 6 5 5 6 6 6 3 4 7 5 7 7 6 13 17 17 17 17 17 18 18 19 19
2 2 2 2 3 3 5 6 6 7 7 5 6 7 8 7 6 6 6 7 8 5 5 8 5 7 6 8 16 17 17 17 17 17 18 18 19 19
2 2 3 3 3 4 3 4 4 5 6 5 7 8 7 6 5 6 7 8 8 5 4 7 5 7 7 7 13 16 17 17 17 17 18 18 19 19
2 2 3 3 5 5 3 4 5 6 6 8 10 10 11 11 8 4 5 5 7 5 3 4 5 7 6 6 8 13 15 16 17 18 18 19 19 18
2 2 3 5 6 6 3 4 6 6 5 5 7 9 8 9 9 6 5 6 6 6 3 3 4 4 6 5 5 5 8 13 17 18 19 19 19 12
2 2 3 6 7 7 5 4 7 6 4 5 5 5 5 5 5 5 5 6 7 7 4 2 4 3 5 7 6 5 6 7 8 10 14 18 19 14
3 3 3 6 7 7 6 6 8 6 4 4 5 5 5 5 5 5 6 7 8 10 7 5 5 5 6 8 8 6 6 7 7 8 8 13 15 17
3 4 6 7 7 5 6 7 5 3 3 4 5 6 5 5 5 5 6 6 8 8 7 7 7 7 7 8 9 8 8 8 6 7 7 8 8 8
2 3 5 6 5 5 4 4 3 3 4 5 6 6 5 4 5 4 5 5 5 6 5 7 8 8 9 10 9 10 8 7 6 7 8 8 8 7
1 1 2 2 2 3 3 3 3 3 4 4 5 5 5 5 5 4 4 4 5 7 7 5 5 6 9 9 9 10 9 9 8 8 8 10 9 8
1 2 3 3 3 4 4 4 4 4 4 4 5 5 5 5 5 4 4 4 6 7 7 6 5 5 5 7 11 10 8 8 8 7 7 9 11 8
1 3 4 4 4 4 4 4 5 4 4 4 5 5 5 5 5 5 5 5 6 7 6 5 5 4 7 10 8 8 7 8 8 8 7 7 10 10
2 4 4 4 4 4 4 5 5 4 4 4 5 5 5 5 5 5 5 6 7 7 7 5 5 5 6 8 8 8 10 9 8 9 8 7 9 13
3 4 4 4 4 5 5 4 4 5 5 5 5 5 5 5 5 6 6 7 7 6 8 8 7 8 6 5 7 8 7 10 11 9 8 8 8 7
4 4 4 4 4 4 4 4 4 5 5 5 5 5 5 5 6 7 6 6 6 7 8 8 6 5 4 6 9 10 10 9 10 15 13 11 7 7
4 4 4 4 4 4 4 4 5 5 5 5 5 5 5 5 5 6 6 6 6 7 7 7 6 5 5 6 8 9 11 10 8 8 8 12 16 18
Wind_Direction
195 188 198 217 210 218 207 193 208 274 283 256 265 274 287 285 299 299 295 302 308 309 309 309 307 306 306 306 307 308 308 307 308 307 308 306 305 305
187 184 201 217 213 216 215 228 230 234 267 269 260 282 297 300 303 298 293 303 302 305 305 305 305 304 304 304 306 307 307 308 309 308 308 308 306 304
196 191 210 203 208 219 219 227 235 233 259 279 271 289 290 298 303 296 290 290 294 300 301 301 302 303 304 303 303 303 304 306 306 305 305 304 305 303
203 193 215 203 207 220 219 233 239 237 247 276 290 289 283 294 299 297 299 296 290 296 298 298 299 302 303 301 301 302 303 303 302 302 301 301 302 302
200 198 208 188 220 232 226 241 248 256 249 266 284 289 288 304 309 301 296 290 292 295 296 295 297 300 301 299 300 301 301 301 301 300 299 299 299 300
202 204 205 203 220 233 238 249 256 261 265 268 279 288 289 300 304 303 306 301 297 298 296 298 299 300 298 297 298 298 298 298 299 298 298 298 299 299
206 221 224 241 250 247 250 250 250 257 267 272 279 288 291 305 300 301 298 305 295 283 298 296 295 289 290 292 294 294 295 295 296 296 297 298 298 298
231 246 250 246 262 264 266 266 257 251 258 264 272 279 286 290 294 294 298 308 300 295 301 292 284 283 282 278 289 293 293 295 296 298 298 299 299 299
232 252 268 276 262 262 269 271 267 264 258 256 264 269 279 284 289 286 286 285 281 293 299 286 279 277 281 284 291 290 292 295 298 298 299 300 300 300
240 242 257 276 272 272 273 276 272 268 266 258 260 268 273 281 277 279 283 284 280 273 267 277 284 283 289 281 283 286 293 297 299 300 300 300 301 301
250 249 253 263 281 287 274 275 283 281 279 273 272 276 282 286 289 289 287 292 289 283 254 266 285 298 290 276 278 290 297 300 301 301 301 301 301 301
262 260 260 269 287 290 267 266 278 284 293 295 283 281 279 279 280 265 266 272 281 282 251 269 283 310 300 282 287 292 292 294 298 299 299 300 302 300
266 269 268 282 288 289 283 268 277 294 295 290 289 287 285 280 275 266 256 254 262 263 260 269 274 274 269 291 294 284 283 291 296 292 294 297 299 299
261 269 278 294 294 293 288 289 296 299 289 286 285 286 286 286 283 276 266 257 254 260 262 252 256 262 275 283 285 288 287 285 286 288 290 294 296 296
267 281 294 299 301 295 293 300 300 286 281 280 281 281 284 287 289 286 274 268 267 261 254 249 254 265 263 267 277 284 295 292 279 284 291 290 289 291
278 288 294 295 295 298 302 299 288 281 275 276 283 287 290 289 284 287 287 296 293 286 257 248 251 256 266 267 269 277 278 281 290 287 289 286 283 278
294 292 293 298 297 300 300 296 291 288 282 284 289 294 294 293 289 290 281 286 281 290 298 292 273 265 264 266 269 268 274 277 278 286 291 290 283 276
318 278 276 273 274 281 285 288 283 277 278 281 281 282 288 293 296 298 288 279 281 286 291 298 307 309 300 272 244 260 270 278 285 285 280 284 287 282
254 263 268 273 276 276 275 276 278 277 277 276 278 281 283 287 289 292 293 290 285 287 289 293 291 287 293 297 287 255 273 288 290 286 277 272 279 286
252 258 264 269 272 273 275 277 280 282 277 276 277 279 280 281 284 285 285 283 286 290 291 287 277 275 273 283 288 287 280 281 284 287 288 284 278 282
266 265 263 264 266 267 268 270 272 275 277 276 273 273 275 277 278 280 282 283 281 282 286 287 285 287 286 287 285 287 287 284 287 286 290 292 294 291
266 267 271 270 270 270 269 269 271 271 272 271 275 277 274 270 273 277 279 284 282 280 283 289 296 296 279 274 284 292 299 303 298 295 284 274 279 283
270 269 266 266 264 264 265 267 271 274 272 270 272 274 276 275 273 273 275 274 279 284 292 297 301 293 284 280 284 290 294 300 306 307 296 290 286 282